Location: Pozzovetere
(41.1000°N, 14.3833°E)
Time: 22:45:40
(UTC+00:00)

Daily predictions for brighter satellites

Satellite Brightness Start Highest point End
(mag) Time Altitude Azimuth Time Altitude Azimuth Time Altitude Azimuth
BREEZE-M DEB (TANK) 3.1 16:55:35 10° WNW 16:59:20 89° NE 17:04:10 10° ESE
Cosmos 2221 Rocket 3.7 16:55:56 10° S 17:00:18 59° E 17:04:44 10° NNE
Cosmos 2322 4.0 16:54:44 10° NNW 17:00:28 79° WSW 17:06:10 10° SSE
Cosmos 2227 Rocket 3.1 16:56:12 10° SSE 17:00:52 27° ESE 17:05:33 10° NE
Okean 2 Rocket 3.1 16:56:36 10° N 17:00:57 61° E 17:05:15 10° SSE
SL-16 R/B 4.3 16:56:13 10° N 17:01:38 33° WNW 17:07:04 10° SW
Cosmos 1025 Rocket 3.0 16:57:40 10° S 17:01:57 82° E 17:06:18 10° N
Cosmos 1315 Rocket 3.1 16:58:24 10° NNW 17:02:11 71° W 17:05:57 10° S
NOSS 3-4 (A) 4.4 16:56:58 10° NNW 17:03:12 37° NE 17:10:22 10° ESE
NOSS 3-4 (C) 4.4 16:57:15 10° NNW 17:03:29 37° NE 17:10:39 10° ESE
SL-16 R/B 3.9 17:02:20 10° NNE 17:05:14 14° NE 17:08:08 10° ENE
Aureole 3 Rocket 3.0 17:05:34 10° N 17:08:50 33° ENE 17:11:39 10° SE
Delta 2 Rocket 4.0 17:09:41 10° WSW 17:12:20 28° S 17:15:04 10° ESE
GP-B 4.0 17:10:13 10° SSW 17:14:27 52° W 17:18:45 10° NNW
Helios 1A Rocket 4.2 17:16:39 11° E 17:17:19 12° E 17:18:40 10° ESE
Cosmos 2346 Rocket 4.5 17:11:14 10° S 17:17:29 82° E 17:23:45 10° N
Sich 1 Rocket 3.6 17:13:07 10° N 17:17:41 76° E 17:22:13 10° SSE
Resurs 1-3 3.5 17:13:40 10° SSE 17:17:53 63° ENE 17:22:09 10° N
SKYMED 2 3.7 17:16:32 10° N 17:20:53 79° WNW 17:25:12 10° SSW
Resurs 01 Rocket 2.3 17:21:34 10° SE 17:25:28 32° ENE 17:29:24 10° N
SPOT 1/Viking Rocket 4.2 17:26:32 10° S 17:31:34 60° W 17:36:38 10° NNW
Atlas Centaur 2 4.0 17:24:58 10° WSW 17:32:07 36° S 17:38:30 10° ESE
Cosmos 1782 3.8 17:31:42 10° NNE 17:34:26 20° ENE 17:35:21 18° E
CARTOSAT-1 3.5 17:31:52 10° SSE 17:35:58 55° ENE 17:40:04 10° N
USA 267 4.4 17:31:59 10° NE 17:37:52 37° NNW 17:43:43 10° W
USA 306 4.1 17:37:28 10° W 17:38:36 13° WSW 17:39:31 10° SSW
Radarsat Rocket 3.9 17:33:13 10° SSE 17:39:00 75° ENE 17:45:15 10° NNW
SL-19 R/B 4.4 17:35:14 10° SSE 17:41:19 64° ENE 17:47:10 10° N
Cosmos 2297 Rocket 3.0 17:39:37 10° SW 17:45:09 53° WNW 17:50:42 10° NNE
ARIANE 6 FM1 Upper Stage 4.5 17:43:06 10° N 17:45:16 14° NE 17:45:29 14° NE
Celestis-02/Orion 38 4.5 17:44:25 10° SSE 17:49:32 77° ENE 17:54:47 10° NNW
SPOT 5 4.0 17:52:22 23° ENE 17:52:50 23° ENE 17:56:47 10° NNE
Cosmos 2058 3.4 17:50:13 10° SSE 17:53:38 31° E 17:54:19 29° ENE
SeaSat 1 3.4 17:49:52 10° S 17:54:35 50° WSW 17:59:22 10° NW
SJ-6B 2.8 17:53:56 20° SE 17:55:55 41° ENE 17:59:10 10° N
IRAS Rocket 4.3 17:50:45 10° SE 17:56:10 54° ENE 18:01:38 10° N
Cosmos 2084 4.1 17:55:17 10° S 17:58:58 31° ESE 17:59:16 30° ESE
Tiangong -2.2 17:56:20 10° W 17:59:31 86° N 18:00:16 50° E
PSLV R/B 3.6 17:56:36 10° S 18:00:42 75° WSW 18:04:48 10° NNW
Cosmos 2219 3.9 17:56:46 10° SSE 18:01:47 32° ESE 18:03:32 27° ENE
YAOGAN 3 4.5 18:01:49 10° SSE 18:06:00 84° WSW 18:10:15 10° NNW
Cosmos 2228 2.8 18:02:24 10° N 18:06:35 73° E 18:10:47 10° SSE
COSMO-SKYMED 1 3.8 18:02:47 10° N 18:06:39 40° WNW 18:10:29 10° SW
Cosmos 1816 Rocket 4.4 18:01:39 10° S 18:07:42 69° E 18:13:53 10° NNE
Cosmos 2344 3.5 17:59:41 10° SSW 18:07:56 68° ESE 18:14:28 13° NE
Cosmos 1544 Rocket 4.1 18:05:20 10° N 18:08:59 36° ENE 18:08:59 36° ENE
YAOGAN 1 4.2 18:05:54 10° SSW 18:09:47 35° W 18:13:43 10° NNW
Cosmos 2263 Rocket 2.1 18:06:03 10° S 18:11:37 63° ESE 18:16:41 13° NNE
Cosmos 1975 Rocket 3.2 18:08:15 10° SSW 18:12:35 72° W 18:16:55 10° N
USA 234 3.9 18:06:56 10° SSE 18:13:17 54° SW 18:19:42 10° NW
Cosmos 1455 Rocket 4.0 18:10:06 10° NNW 18:14:14 48° W 18:18:22 10° SSW
Cosmos 2034 Rocket 4.0 18:12:20 10° N 18:18:26 58° E 18:24:32 10° SSE
Cosmos 1072 Rocket 4.5 18:13:07 10° N 18:19:20 85° W 18:25:28 10° S
Cosmos 783 Rocket 4.4 18:16:50 10° SSW 18:22:06 85° ESE 18:27:22 10° NNE
Cosmos 2237 Rocket 3.3 18:18:01 10° NW 18:23:25 45° WSW 18:28:47 10° S
DNEPR-1 R/B 4.0 18:22:43 10° NNW 18:27:50 81° ENE 18:30:45 31° SE
Cosmos 2082 4.0 18:24:28 10° S 18:29:27 44° ESE 18:29:27 44° ESE
Cosmos 1346 Rocket 3.7 18:33:20 10° SSW 18:36:47 42° WNW 18:40:08 11° N
Haruka 4.1 18:35:08 10° WSW 18:39:48 25° S 18:40:09 24° S
Cosmos 2227 Rocket 3.3 18:39:19 10° SW 18:44:38 42° WNW 18:50:00 10° N
Helios 1A Rocket 4.1 18:49:53 31° WNW 18:49:53 31° WNW 18:52:37 10° SW
SL-16 R/B 2.0 18:44:33 10° NNW 18:50:15 82° ENE 18:50:50 72° SE
NOSS 3-4 (A) 4.5 18:47:29 10° NW 18:54:25 57° WSW 19:02:05 11° SSE
NOSS 3-4 (C) 4.4 18:47:46 10° NW 18:54:43 58° WSW 19:02:11 12° SSE
Resurs 01 Rocket 4.0 18:58:24 10° SW 19:01:51 22° W 19:05:19 10° NW
BREEZE-M DEB (TANK) 3.9 19:02:39 10° WSW 19:06:55 76° NNW 19:11:13 38° NE
CSL-04 Debris 4.3 19:12:12 70° W 19:12:12 70° W 19:17:33 10° NNW
CSL-04 Rocket 4.1 19:17:14 57° WSW 19:17:22 57° W 19:22:34 10° NNW
Atlas Centaur 2 4.1 19:14:21 10° WSW 19:19:57 23° SSW 19:20:55 22° S
SPOT 5 4.3 19:31:24 36° WNW 19:31:24 36° WNW 19:35:12 10° NNW
Cosmos 2219 4.5 19:40:29 10° SW 19:45:34 37° WNW 19:45:34 37° WNW
BREEZE M DEB (TANK) 4.3 19:37:09 10° SW 19:49:17 60° WSW 19:49:17 60° WSW
Cosmos 2263 Rocket 4.4 19:51:47 10° W 19:56:00 21° NW 19:58:28 16° NNW
